Location: Chimay
(50.0486°N, 4.3171°E)
Time: 21:53:51
(UTC+00:00)

Cosmos 1536 - Pass Details

Date: 08 August 2020
Orbit: 541 x 557 km, 82.5° (Epoch: 21 September)

Event Time Altitude Azimuth Distance (km) Brightness Sun altitude
Exits shadow 22:34:24 53° 79° (E) 675 3.1 -22.2°
Drops below altitude 10° 22:38:03 10° 18° (NNE) 1,822 6.2 -22.4°
Sets 22:40:15 0° 14° (NNE) 2,718 7.3 -22.5°
